Theta_e
322 321 320 319 328 325 326 326 323 329 331 331 329 327 330 332 333 332 334 336 336 331 335 335 337 336 335 333 333 331 331 331 329 330 327 329 329 328 327 327 327 330 328 328 331 329 326 324 324
320 320 320 317 327 329 327 322 325 327 334 331 332 332 333 337 333 334 336 336 334 332 335 336 337 335 333 332 331 331 331 330 330 328 327 329 328 328 327 327 327 328 327 327 326 326 325 324 325
319 318 320 321 321 327 327 323 323 330 331 330 335 331 332 336 333 335 336 336 334 333 335 336 336 334 332 331 332 332 331 331 330 328 328 328 327 327 327 326 327 327 327 326 326 325 325 325 325
318 316 315 323 325 321 323 325 328 333 327 329 331 336 331 332 334 336 336 335 335 333 334 334 334 334 333 332 332 333 331 332 330 328 327 327 326 326 326 325 326 326 326 326 326 325 325 325 325
317 315 322 324 322 320 318 324 327 329 327 330 329 333 334 331 333 336 335 335 334 331 330 332 332 333 332 331 331 332 331 331 329 328 327 327 326 325 325 325 325 326 325 325 326 326 325 324 320
318 316 326 329 325 320 319 324 323 325 326 331 332 333 333 331 335 337 334 335 331 326 327 328 330 331 332 331 331 330 330 329 327 327 327 326 326 325 325 325 325 325 325 325 325 323 321 319 319
319 320 324 326 323 320 323 321 323 325 327 330 329 333 330 333 334 337 334 334 328 326 326 327 328 331 332 330 330 328 327 326 323 322 326 325 325 325 325 325 325 325 325 325 322 320 320 320 320
316 318 321 320 320 321 316 321 320 324 325 326 326 330 330 331 335 336 335 332 328 327 326 327 329 331 331 330 330 328 327 324 322 324 325 324 324 324 324 323 324 325 324 320 320 320 321 321 320
313 320 323 324 320 320 317 320 319 321 328 326 327 325 325 332 335 335 334 331 329 328 328 327 328 330 329 329 329 328 327 325 322 323 324 324 324 324 322 321 321 320 319 320 320 321 320 321 321
317 320 321 321 318 320 319 320 321 325 328 328 329 328 328 333 334 332 332 330 330 330 329 328 328 329 328 329 329 328 326 323 320 320 322 323 323 322 319 318 317 317 319 320 320 321 321 320 321
317 320 318 319 315 315 319 318 320 324 327 325 326 328 329 332 332 332 331 330 330 330 329 328 328 329 330 329 329 328 326 324 320 319 318 318 318 318 318 316 316 317 319 320 320 321 321 321 321
323 320 321 320 314 315 318 316 318 322 323 318 321 326 329 331 332 331 330 330 331 330 328 329 328 328 328 329 330 328 326 325 320 318 318 318 317 317 316 316 316 317 319 320 319 320 321 321 321
320 321 319 319 319 318 313 316 318 318 317 319 321 327 330 331 331 330 331 332 333 331 328 327 329 329 328 327 329 329 328 326 322 317 317 319 319 317 317 317 317 317 320 320 320 320 321 322 321
321 318 320 319 315 313 315 314 312 314 314 323 326 327 328 330 331 330 332 332 332 332 330 326 328 329 329 327 327 328 328 326 324 319 319 320 320 317 316 317 317 318 320 321 322 322 323 322 322
324 326 323 319 319 317 313 316 314 313 316 319 324 325 325 327 328 329 331 332 332 332 332 328 328 328 328 328 328 327 327 326 325 322 322 322 322 322 317 318 319 320 321 322 323 323 323 323 321
325 326 331 327 313 315 316 330 317 312 317 317 320 323 324 325 327 329 331 332 332 332 333 331 329 328 328 327 327 327 326 325 325 324 322 323 323 323 323 320 321 321 322 322 323 323 323 322 321
317 322 327 329 314 315 315 321 316 313 317 316 316 320 323 324 325 328 329 330 332 332 333 332 330 329 328 327 327 325 325 325 324 323 322 322 323 323 323 322 320 321 322 322 323 323 323 323 321
324 322 321 326 323 314 316 316 313 313 313 316 314 315 319 322 324 325 327 329 330 331 332 333 332 330 329 328 328 327 327 327 326 324 323 322 322 323 324 323 322 322 322 322 323 323 323 323 321
318 320 320 319 320 316 316 316 316 314 313 314 313 312 312 315 319 322 324 327 329 330 331 331 332 331 330 329 328 328 328 328 327 326 323 322 322 323 324 324 323 322 322 322 322 323 323 323 321
324 324 323 320 319 319 320 320 319 315 314 314 315 315 313 312 312 318 322 325 327 329 330 331 331 331 331 331 330 329 329 329 329 328 326 325 322 321 322 322 322 322 322 322 322 323 323 322 322
326 327 325 324 321 318 317 319 318 315 315 316 313 316 316 315 314 312 318 322 326 327 328 329 330 331 331 331 330 329 328 327 328 328 327 327 325 324 323 322 322 321 321 322 322 323 323 322 322
326 322 324 325 326 326 317 322 319 311 314 315 315 314 315 315 313 314 312 319 323 325 326 328 329 330 329 329 330 328 327 326 327 327 328 328 327 326 325 323 322 321 321 321 322 322 322 323 321
324 321 323 323 325 324 323 326 323 317 317 315 315 314 314 314 314 314 312 314 318 320 324 326 327 328 328 328 329 328 328 328 327 327 328 328 329 328 326 325 323 322 321 321 322 323 322 322 322
319 321 321 321 323 328 326 325 320 318 318 317 317 316 315 313 313 313 314 313 314 318 321 323 325 326 327 327 328 328 328 328 327 327 327 327 327 327 326 325 324 323 322 321 321 322 323 323 322
322 322 326 327 325 327 313 322 323 314 313 316 316 315 313 312 313 312 311 310 312 315 319 322 323 325 325 326 326 328 328 328 327 327 327 326 326 326 326 326 325 325 324 323 322 322 322 323 323
324 323 325 326 324 320 314 320 318 314 315 315 312 312 310 311 310 310 311 311 311 314 317 321 323 324 325 325 326 326 328 327 327 327 327 327 327 327 328 328 327 326 325 324 323 322 322 322 322
322 325 316 315 299 312 314 314 312 311 312 313 313 312 312 311 310 310 309 310 311 311 315 319 322 323 324 325 325 325 326 327 327 327 327 327 327 328 328 328 326 325 325 324 323 322 322 322 322
321 320 324 318 323 319 316 313 317 313 313 313 313 314 314 310 308 308 307 309 310 310 312 317 321 323 324 325 325 325 326 326 327 327 327 327 327 327 327 326 325 324 323 323 323 323 323 322 322
321 323 321 321 319 321 315 316 308 313 313 312 311 311 309 308 307 307 306 308 307 308 309 313 319 322 323 324 325 325 325 326 326 326 327 326 327 326 326 325 324 323 323 323 323 323 323 322 323
318 320 320 323 319 315 314 321 308 308 308 308 308 307 306 305 305 305 304 304 303 305 307 310 317 321 323 323 323 324 325 325 325 325 326 326 325 324 324 323 323 323 322 323 323 323 323 322 321
Wind_Speed
18 14 10 5 4 4 1 3 0 3 2 1 2 3 4 2 3 2 4 10 16 17 15 14 14 14 13 15 15 13 15 16 14 15 14 14 15 15 15 15 16 15 16 17 19 18 16 16 17
16 10 5 2 4 2 3 2 4 3 4 6 4 2 2 2 1 4 11 9 20 18 16 16 15 14 15 15 14 13 15 16 15 14 13 13 14 15 14 15 16 15 16 16 17 16 16 17 18
9 8 3 4 3 3 3 4 4 2 6 1 3 3 2 3 1 11 3 19 19 17 16 16 15 14 15 15 14 15 12 15 15 14 13 13 13 15 13 14 15 15 15 16 16 16 17 17 17
7 6 4 3 3 3 3 2 3 6 1 1 3 3 1 2 8 7 15 21 19 17 15 16 15 14 14 14 14 15 12 13 13 13 12 12 13 13 14 14 14 15 14 15 15 16 16 16 16
6 3 3 2 3 2 2 2 6 5 2 2 2 3 1 1 4 10 20 20 18 17 15 15 15 14 14 15 14 14 12 13 12 12 12 11 13 13 13 13 14 14 14 14 14 14 14 15 16
3 2 3 1 3 2 1 4 4 3 3 2 3 6 3 3 9 16 21 20 16 17 16 15 15 15 14 15 16 15 11 9 10 11 11 10 11 12 12 13 13 13 13 14 13 13 13 12 12
5 3 4 2 3 4 3 6 4 4 4 3 6 5 2 5 10 19 21 18 16 16 16 16 16 15 15 15 15 14 10 8 8 11 13 11 11 12 12 12 13 13 13 13 12 12 11 10 9
4 3 3 1 2 4 5 5 1 5 4 3 2 3 3 7 15 21 19 18 17 16 16 18 18 17 16 15 14 12 10 9 7 12 14 12 11 10 11 13 12 12 12 12 11 9 9 10 9
2 4 2 3 5 3 3 4 1 1 4 2 3 2 1 18 22 20 18 17 18 18 18 17 19 19 18 17 15 12 11 8 8 11 13 13 12 10 10 10 11 11 11 10 8 7 7 7 6
3 3 8 3 3 2 3 3 7 4 3 3 2 2 2 23 24 20 19 16 14 18 20 19 18 19 19 18 17 15 12 10 10 11 12 11 10 10 10 10 10 11 11 9 6 5 5 5 5
2 5 4 2 2 2 3 3 4 6 3 7 7 5 11 19 19 19 19 20 21 21 21 21 20 19 19 20 18 17 14 12 12 12 12 12 12 12 11 11 11 11 9 6 4 5 4 3 3
2 4 3 1 4 3 3 5 4 5 5 2 7 7 15 18 20 22 21 22 25 24 24 23 21 20 20 20 20 18 16 15 13 13 13 12 12 11 11 10 10 9 8 5 4 5 4 2 2
3 3 3 5 3 3 4 3 4 6 8 2 5 10 14 17 20 20 19 25 26 26 26 24 23 22 21 20 20 20 18 16 14 14 13 12 11 11 11 11 10 9 7 6 5 5 4 3 2
2 2 4 3 2 3 4 3 3 4 3 3 5 7 9 16 21 16 22 25 28 28 28 25 25 24 23 22 21 21 20 17 17 16 14 13 11 11 12 12 11 11 9 7 6 5 5 4 5
1 2 4 4 3 4 3 5 7 6 5 6 7 7 8 13 16 22 26 27 30 31 29 29 27 26 25 24 22 22 21 20 19 18 17 15 14 13 12 12 12 10 9 8 8 7 7 7 6
3 1 2 3 5 3 6 11 5 8 6 9 8 7 7 9 18 24 27 29 29 30 31 29 29 28 27 26 24 24 23 22 21 21 20 19 16 16 15 15 14 12 11 10 10 9 9 8 8
5 4 4 5 7 2 6 7 5 1 7 9 8 7 6 7 14 27 29 30 30 31 32 31 29 32 31 28 26 25 24 24 24 23 23 22 20 18 18 17 15 14 14 14 13 12 11 10 10
5 3 3 5 3 4 4 13 7 4 5 10 6 6 7 9 15 22 26 30 31 32 32 31 30 31 32 31 28 27 26 25 24 25 26 25 23 21 21 20 18 17 16 16 15 14 13 13 12
4 2 3 3 4 4 7 12 11 8 5 8 8 8 9 11 19 18 24 28 31 32 33 34 34 34 33 33 31 29 30 30 28 27 26 26 26 24 24 23 22 21 20 20 17 16 16 16 14
2 1 3 4 2 3 7 11 12 7 7 9 14 14 11 10 10 16 22 24 31 34 36 37 38 36 37 38 37 34 32 32 32 30 28 27 28 27 27 27 26 24 23 21 21 21 20 19 18
9 5 4 4 5 3 5 10 13 7 9 12 10 17 14 16 15 14 18 28 31 34 39 40 40 40 40 39 35 32 27 25 27 33 33 32 30 29 28 28 28 26 26 26 25 24 24 20 20
13 11 6 6 3 5 3 8 12 4 9 9 16 14 19 17 15 15 16 21 32 40 37 40 42 43 42 40 35 33 28 26 31 32 34 33 33 31 31 30 29 30 29 30 29 28 28 27 21
3 7 10 9 10 5 8 6 7 3 6 11 13 15 17 18 16 17 20 30 37 35 38 40 41 42 43 43 41 33 31 30 30 31 32 33 33 34 34 33 33 33 34 33 32 31 31 30 27
8 6 4 3 3 8 12 10 4 7 9 8 13 16 12 12 13 14 20 23 28 32 33 35 37 42 42 43 43 41 37 33 28 33 34 35 33 33 35 36 35 35 35 35 34 34 33 33 33
6 8 3 3 3 9 4 9 16 6 8 11 15 15 11 8 10 10 9 14 24 29 34 36 38 38 40 42 43 44 44 38 38 34 35 31 35 35 35 34 35 36 36 36 36 36 35 36 37
8 6 4 7 6 3 2 8 6 15 16 17 14 12 7 9 7 8 8 16 23 29 31 33 35 36 37 40 44 45 43 39 38 33 36 37 36 36 33 31 32 34 35 34 35 35 36 36 38
5 6 2 2 2 2 4 8 8 10 14 9 12 11 17 13 9 10 11 18 22 25 31 34 33 35 38 41 39 38 39 37 36 37 35 36 37 36 32 30 28 28 28 29 30 32 34 34 36
6 9 3 2 5 5 6 6 9 2 8 14 11 13 14 5 7 9 9 19 24 24 28 29 32 35 37 39 38 37 38 39 38 34 36 37 35 33 31 29 27 26 26 27 28 29 30 31 32
5 6 4 3 3 4 3 6 7 14 13 10 8 8 8 8 9 9 8 22 21 17 21 27 29 31 33 34 34 34 35 36 35 35 35 34 32 31 29 28 26 27 27 27 28 29 29 29 30
8 12 13 7 11 3 2 16 4 5 5 5 10 9 8 9 9 8 8 16 14 17 15 23 25 28 30 29 29 29 29 29 29 30 30 29 29 27 26 25 25 25 25 25 26 25 26 26 26
Wind_Direction
345 348 346 34 47 60 233 244 76 145 162 282 85 140 173 88 162 202 163 171 154 153 151 150 149 143 137 129 125 115 111 112 109 106 105 105 108 106 106 106 107 104 97 94 97 98 90 89 90
349 357 33 79 85 64 268 243 201 181 127 126 83 63 83 133 133 122 135 164 155 152 151 150 152 148 140 134 127 121 115 116 114 110 109 104 108 105 104 106 110 108 98 98 98 92 90 91 90
357 10 70 84 108 180 222 218 160 109 139 111 108 45 134 159 171 158 194 158 158 154 152 153 154 150 145 140 136 134 116 119 119 115 112 108 106 106 103 105 109 109 102 100 100 92 92 94 90
5 22 43 84 204 233 200 212 136 130 258 110 129 95 306 232 156 182 158 159 161 159 162 159 157 155 153 150 144 143 125 125 123 117 116 117 107 108 108 105 108 111 102 97 99 98 94 92 88
40 53 66 77 279 271 259 168 144 145 155 144 145 178 184 224 183 162 158 163 167 161 166 166 165 162 162 156 150 146 136 128 123 124 119 115 112 109 106 104 109 111 104 98 97 98 94 91 84
42 84 72 206 255 276 286 156 140 136 143 160 112 143 191 239 171 169 165 166 172 164 164 166 168 167 170 165 158 154 152 140 130 130 128 118 119 114 112 110 111 113 109 105 100 97 100 94 84
109 83 180 172 282 315 184 146 161 160 159 240 144 137 258 199 182 173 172 170 169 169 165 164 163 168 168 168 166 165 163 160 154 143 138 135 129 122 120 119 120 122 122 115 109 102 97 89 83
106 98 121 217 209 264 187 168 150 161 199 114 185 200 232 195 175 171 174 173 170 173 172 167 164 167 172 173 172 172 169 166 162 147 144 143 139 139 134 131 124 124 125 121 110 98 89 84 87
131 76 170 217 162 245 159 162 36 143 122 203 202 166 268 166 167 169 172 175 174 176 178 174 172 173 177 177 178 180 176 178 167 161 163 152 154 152 140 132 132 130 125 118 107 90 85 83 83
82 133 204 209 181 263 200 190 165 154 127 242 273 206 154 164 169 172 177 179 181 183 183 181 178 177 180 183 183 184 183 180 174 171 168 169 168 160 151 145 145 143 142 138 128 121 112 99 89
158 188 206 211 182 173 210 186 176 134 225 222 208 176 158 174 178 187 190 187 187 192 192 188 188 189 188 190 192 191 189 186 181 179 178 175 174 171 166 161 160 160 163 159 150 142 140 117 97
161 252 246 203 106 122 195 125 183 202 214 229 227 160 166 184 191 195 198 194 196 198 198 196 194 197 197 197 198 200 198 193 189 187 188 186 184 180 175 173 173 175 177 181 172 167 161 166 141
156 247 216 259 247 203 130 229 212 239 246 1 121 153 178 191 200 203 206 207 205 204 206 203 200 204 203 202 202 205 206 204 198 195 192 195 195 190 187 185 186 188 195 202 200 194 198 201 220
195 249 294 318 311 175 165 218 164 249 155 153 159 186 192 195 202 203 204 210 212 213 213 211 205 205 208 209 209 210 212 212 208 204 203 202 203 201 199 198 201 206 211 215 216 217 230 236 246
88 3 333 238 225 272 146 283 208 230 158 203 214 200 206 214 200 209 209 212 218 219 216 215 213 211 212 216 216 217 218 217 217 217 213 209 212 212 210 210 213 218 226 226 227 232 238 243 253
134 118 180 269 152 262 165 253 250 226 182 225 224 226 216 221 221 221 223 222 224 223 219 219 219 217 216 219 220 223 223 223 224 225 226 223 222 222 223 223 223 227 232 233 233 237 241 244 247
10 209 195 294 202 137 190 260 246 59 204 238 228 217 232 232 232 234 229 228 227 228 224 224 223 224 221 222 223 225 225 227 230 230 231 231 231 230 230 233 235 235 235 236 237 238 237 245 243
197 222 224 205 247 191 218 261 271 277 221 244 272 247 233 239 239 236 232 231 230 229 230 226 227 229 226 225 225 227 229 231 233 235 236 234 234 235 236 238 239 237 237 237 239 238 242 246 243
81 237 203 251 267 207 233 252 253 251 227 260 254 246 238 239 255 250 244 235 228 228 228 228 227 228 225 223 223 225 227 230 233 235 236 237 237 238 238 240 241 239 239 242 243 243 242 241 234
129 204 254 272 300 231 282 265 261 240 237 224 240 251 240 241 254 243 239 233 225 223 224 226 228 229 228 226 226 226 230 234 237 238 237 236 235 237 237 240 242 241 242 243 241 239 239 241 235
207 230 236 230 335 280 308 273 262 240 233 241 227 234 239 233 236 243 220 223 225 219 224 224 225 228 229 228 226 230 231 234 236 236 237 236 237 238 240 243 245 246 243 244 244 243 240 238 241
214 184 186 317 350 259 17 287 275 271 244 242 245 226 236 234 233 234 221 214 219 228 224 225 227 226 227 226 218 219 219 223 234 238 241 243 241 242 242 243 245 247 246 245 246 247 246 243 239
219 166 189 200 233 279 228 271 268 248 244 254 252 239 238 234 230 233 225 224 228 229 226 228 226 224 224 224 220 214 220 227 232 239 246 246 245 243 243 242 243 245 245 248 248 248 246 246 243
146 107 75 79 112 251 246 217 216 227 223 238 245 248 242 236 237 240 242 234 229 233 230 228 222 225 222 221 221 219 219 219 221 232 237 244 245 244 242 242 243 247 249 250 251 252 251 251 251
176 136 191 187 185 247 322 200 246 256 245 227 242 252 250 241 244 240 227 223 234 228 226 221 221 221 220 219 220 222 226 224 225 227 233 234 243 244 246 245 244 246 250 252 254 255 255 254 253
185 176 179 199 193 254 43 229 250 230 248 252 248 262 277 267 248 255 249 234 233 232 225 219 215 215 217 217 221 225 226 224 228 229 234 240 244 252 257 257 252 252 254 257 256 256 259 259 259
166 207 74 129 72 34 217 283 282 238 260 262 258 262 264 254 249 249 260 258 248 241 234 226 217 216 216 219 221 221 224 224 227 233 237 243 250 255 257 258 256 255 256 258 259 259 260 260 263
203 132 181 172 198 239 254 268 233 294 249 257 262 260 272 296 262 248 243 249 256 247 239 233 225 218 219 220 220 221 223 227 230 233 240 243 251 253 255 255 257 257 256 255 254 256 260 261 265
165 192 188 132 181 208 275 259 215 219 241 254 282 280 278 276 264 261 247 238 247 248 232 228 226 222 222 224 223 222 226 232 234 236 244 247 250 254 255 256 256 256 256 257 256 259 264 265 270
224 200 202 215 223 251 195 269 159 216 252 243 268 284 287 275 277 274 258 237 229 245 232 223 221 221 224 225 224 227 232 233 235 239 243 247 250 252 253 254 255 258 259 262 262 264 268 266 264